Find Starlink 2330

NORAD ID: 47874 Int'l Des: 2021-021 Owner: SPXS Country: US Constellation: starlink operational
LEOCIRCULARSTARLINK_TYPE

当前视图

正在加载3D地球...

About Starlink 2330

Starlink 2330 (NORAD 47874) is a starlink constellation satellite (v1.0) launched Mar 14, 2021 by SPXS of US. It operates in LEO, CIRCULAR, STARLINK_TYPE orbit with a mass of 260.00 kg.

关于 Starlink 2330

正在加载描述...

即将过境

Passes for default location (London). Set your location on the main map for personalized predictions.

高度历史

Loading altitude history...

两行轨道根数

1 47874U 21021Q 26193.43937602 .00038402 00000-0 94725-3 0 9998
2 47874 53.1433 353.3755 0001845 155.8655 204.2436 15.40191470296117
Epoch: Jul 12, 2026 • Age: 11 hours

当前状态

高度 464.5 km
远地点 / 近地点 N/A
速度 7.63 km/s
星下点 -53.12°S, 20.97°E
发射日期 Mar 14, 2021
运行时间 5.3 years
类型 internet

技术详情

分类 Payload
质量 260.00 kg
干质量 248.00 kg
总质量 260.00 kg
长度 0.20 m
直径 2.80 m
跨度 9.00 m
形状 Box + pan
制造商 SPXS
平台类型 Starlink
阶段状态 In Orbit
所有者/国家 SPXS/US

Most Searched